Вернуться в каталог

THORAD AGENA D DEB

АктивенPO
NORAD 4842·DEBRIS·🇺🇸 United States

Запущен Apr 8, 1970 с Vandenberg Space Force Base

Loading…

Ближайшие Пролёты (ближайшие 24 часа)

TLE

СвежийSource: Space-Track

Эпоха: Sep 14, 2026, 00:49 UTC

1 04842U 70025EE  26257.03447178  .00001477  00000-0  85484-3 0  9999
2 04842  99.9478 272.0905 0015293  24.4756 335.7134 14.10733785835437

Отслеживайте THORAD AGENA D DEB в реальном времени с AllMySat

Download on the App Store